Weather History for Worland, WY

Change the Weather History Date:

Wednesday, May 29, 2013

  Actual Average Record
Temperature  
Mean Temperature 54 °F 59 °F  
Max Temperature 57 °F 74 °F 94 °F (2003)
Min Temperature 50 °F 45 °F 33 °F (1979)
Degree Days  
Heating Degree Days 11 6  
Month to date heating degree days 220 296  
Since 1 July heating degree days 7399 7763  
Cooling Degree Days 0 1  
Month to date cooling degree days 17 3  
Year to date cooling degree days 17 4  
Growing Degree Days 2 (Base 50)    
Moisture  
Dew Point 47 °F    
Average Humidity 81    
Maximum Humidity 96    
Minimum Humidity 66    
Precipitation  
Precipitation 0.30 in 0.05 in 0.88 in (1979)
Month to date precipitation 1.12 1.32  
Year to date precipitation 2.69 3.06  
Sea Level Pressure  
Sea Level Pressure 29.63 in    
Wind  
Wind Speed 9 mph (NW)    
Max Wind Speed 18 mph    
Max Gust Speed 22 mph    
Visibility 8 miles    
Events Rain    
T = Trace of Precipitation, MM = Missing Value Source: NWS Daily Summary

Daily Weather History Graph

Daily Weather History Graph

Search for Another Location

Airport:

Trip Planner

Search our weather history database for the weather conditions in past years. The results will help you decide how hot, cold, wet, or windy it might be!

Date:

Astronomy

May. 29, 2013 Rise Set
Actual Time 5:33 AM MDT 8:45 PM MDT
Civil Twilight 4:58 AM MDT 9:20 PM MDT
Nautical Twilight 4:13 AM MDT 10:05 PM MDT
Astronomical Twilight 3:18 AM MDT 11:01 PM MDT
Moon 12:05 AM MDT (5/29) 10:42 AM MDT (5/29)
Length of Visible Light 16h 21m
Length of Day
15h 11m
Waning Gibbous, 72% of the Moon is Illuminated
May 29
Waning Gibbous
May 31
Last Quarter
Jun 8
New
Jun 16
First Quarter
Jun 23
Full

Hourly Weather History & Observations

Time (MDT) Temp. Dew Point Humidity Pressure Visibility Wind Dir Wind Speed Gust Speed Precip Events Conditions
12:53 AM 54.0 °F 45.0 °F 72% 29.60 in 10.0 mi North 5.8 mph - N/A   Mostly Cloudy
1:53 AM 54.0 °F 46.0 °F 75% 29.58 in 10.0 mi NNW 3.5 mph - 0.00 in Rain Light Rain
2:53 AM 53.1 °F 46.0 °F 77% 29.57 in 10.0 mi NNW 8.1 mph - 0.00 in   Overcast
3:53 AM 52.0 °F 46.9 °F 83% 29.59 in 10.0 mi NNE 5.8 mph - 0.00 in Rain Light Rain
4:15 AM 51.8 °F 46.4 °F 82% 29.68 in 6.0 mi North 8.1 mph - 0.01 in Rain Light Rain
4:53 AM 50.0 °F 48.0 °F 93% 29.60 in 2.5 mi West 3.5 mph - 0.08 in Rain Rain
5:23 AM 50.0 °F 48.2 °F 94% 29.65 in 3.0 mi NW 4.6 mph - 0.11 in Rain Rain
5:31 AM 50.0 °F 48.2 °F 94% 29.66 in 5.0 mi WNW 3.5 mph - 0.11 in Rain Light Rain
5:53 AM 50.0 °F 48.0 °F 93% 29.59 in 10.0 mi WNW 4.6 mph - 0.12 in Rain Light Rain
6:01 AM 50.0 °F 48.2 °F 94% 29.66 in 10.0 mi West 5.8 mph - 0.00 in Rain Light Rain
6:53 AM 50.0 °F 48.0 °F 93% 29.59 in 4.0 mi WSW 6.9 mph - 0.06 in Rain Rain
7:13 AM 50.0 °F 48.2 °F 94% 29.66 in 10.0 mi West 8.1 mph - 0.01 in Rain Light Rain
7:38 AM 51.8 °F 48.2 °F 88% 29.66 in 10.0 mi WSW 5.8 mph - 0.01 in   Overcast
7:53 AM 51.1 °F 48.0 °F 89% 29.59 in 10.0 mi WSW 4.6 mph - 0.01 in   Overcast
8:53 AM 51.1 °F 48.0 °F 89% 29.61 in 10.0 mi NNW 6.9 mph - 0.00 in   Overcast
9:00 AM 51.8 °F 46.4 °F 82% 29.65 in 10.0 mi NNW 6.9 mph - N/A   Overcast
9:53 AM 52.0 °F 48.9 °F 89% 29.60 in 10.0 mi NNW 6.9 mph - N/A   Overcast
10:02 AM 51.8 °F 48.2 °F 88% 29.65 in 10.0 mi NW 10.4 mph - N/A   Overcast
10:12 AM 51.8 °F 48.2 °F 88% 29.65 in 5.0 mi NNW 11.5 mph - 0.00 in Rain Light Rain
10:24 AM 50.0 °F 48.2 °F 94% 29.64 in 2.5 mi NW 12.7 mph - 0.01 in Rain Light Rain
10:31 AM 50.0 °F 48.2 °F 94% 29.64 in 4.0 mi NW 12.7 mph - 0.01 in Rain Light Rain
10:53 AM 50.0 °F 48.0 °F 93% 29.60 in 3.0 mi NW 12.7 mph - 0.01 in   Overcast
11:35 AM 51.8 °F 48.2 °F 88% 29.65 in 2.0 mi NW 12.7 mph - 0.01 in Rain Light Rain
11:48 AM 51.8 °F 48.2 °F 88% 29.65 in 3.0 mi NW 12.7 mph - 0.01 in   Overcast
11:53 AM 52.0 °F 50.0 °F 93% 29.60 in 2.5 mi NW 13.8 mph - 0.01 in   Overcast
12:03 PM 51.8 °F 48.2 °F 88% 29.65 in 2.0 mi NW 12.7 mph - N/A   Overcast
12:19 PM 51.8 °F 48.2 °F 88% 29.65 in 3.0 mi NW 11.5 mph - N/A   Overcast
12:27 PM 51.8 °F 48.2 °F 88% 29.65 in 4.0 mi NW 12.7 mph - N/A   Overcast
12:53 PM 52.0 °F 50.0 °F 93% 29.60 in 7.0 mi NW 15.0 mph - N/A   Overcast
1:21 PM 53.6 °F 50.0 °F 88% 29.64 in 10.0 mi NW 13.8 mph - N/A   Overcast
1:53 PM 52.0 °F 48.0 °F 86% 29.60 in 10.0 mi NW 13.8 mph - N/A   Overcast
2:53 PM 53.1 °F 46.9 °F 80% 29.60 in 10.0 mi NW 15.0 mph - N/A   Overcast
3:24 PM 53.6 °F 46.4 °F 77% 29.64 in 10.0 mi NNW 15.0 mph - N/A   Overcast
3:53 PM 55.0 °F 46.0 °F 72% 29.59 in 10.0 mi NW 15.0 mph - N/A   Overcast
4:53 PM 55.9 °F 46.0 °F 69% 29.60 in 10.0 mi NW 12.7 mph 21.9 mph N/A   Overcast
5:53 PM 55.9 °F 46.9 °F 72% 29.60 in 10.0 mi NNW 13.8 mph - N/A   Overcast
6:53 PM 55.0 °F 44.1 °F 67% 29.60 in 10.0 mi NNW 17.3 mph - N/A   Overcast
7:53 PM 54.0 °F 45.0 °F 72% 29.64 in 10.0 mi NNW 4.6 mph - N/A   Overcast
8:53 PM 52.0 °F 46.0 °F 80% 29.63 in 10.0 mi WNW 6.9 mph - 0.01 in   Overcast
9:53 PM 52.0 °F 46.9 °F 83% 29.65 in 10.0 mi West 5.8 mph - 0.00 in   Overcast
10:53 PM 52.0 °F 46.0 °F 80% 29.66 in 10.0 mi WNW 4.6 mph - N/A   Overcast
11:53 PM 52.0 °F 46.0 °F 80% 29.66 in 10.0 mi West 5.8 mph - N/A   Overcast